EST,Max TemperatureF,Mean TemperatureF,Min TemperatureF,Max Dew PointF,MeanDew PointF,Min DewpointF,Max Humidity, Mean Humidity, Min Humidity, Max Sea Level PressureIn, Mean Sea Level PressureIn, Min Sea Level PressureIn, Max VisibilityMiles, Mean VisibilityMiles, Min VisibilityMiles, Max Wind SpeedMPH, Mean Wind SpeedMPH, Max Gust SpeedMPH,PrecipitationIn, CloudCover, Events, WindDirDegrees
2013-1-1,60,58,55,52,49,43,82,70,53,30.13,30.04,29.96,10.0,9.0,2.5,16,7,18,0.04,6,Rain,248
2013-1-2,56,49,42,52,45,35,89,84,76,30.20,30.01,29.93,10.0,4.6,0.5,15,5,,0.47,7,Fog-Rain,36
2013-1-3,44,40,36,35,33,31,82,72,65,30.26,30.19,30.14,10.0,9.9,8.0,12,7,,0.02,5,Rain,23
2013-1-4,52,41,30,33,28,24,93,71,35,30.32,30.26,30.19,10.0,7.8,0.8,12,3,21,0.00,1,Fog,279
2013-1-5,51,40,30,32,27,21,86,61,35,30.39,30.33,30.27,10.0,10.0,10.0,8,4,,0.00,3,,346
2013-1-6,48,44,39,45,41,32,93,83,66,30.29,30.16,30.09,10.0,9.6,2.0,12,3,,0.00,8,Rain,269
2013-1-7,53,45,37,43,35,32,87,70,47,30.45,30.32,30.14,10.0,9.9,9.0,18,10,26,0.00,2,,23
2013-1-8,60,50,39,48,41,32,89,76,60,30.45,30.40,30.36,10.0,9.9,9.0,9,5,,0.00,3,,59
2013-1-9,70,56,42,54,49,39,93,79,55,30.44,30.38,30.36,10.0,9.7,5.0,6,2,,0.00,4,,23
2013-1-10,60,53,46,51,45,34,100,81,41,30.52,30.45,30.41,10.0,4.6,0.2,14,2,24,0.00,3,Fog,59
2013-1-11,71,60,48,63,56,39,94,82,61,30.44,30.26,30.16,10.0,8.1,0.8,16,8,26,0.14,5,Rain,157
2013-1-12,75,64,53,62,57,54,100,90,64,30.18,30.15,30.11,10.0,3.9,0.2,9,4,,0.01,3,Fog,172
2013-1-13,75,64,53,60,56,52,100,90,58,30.19,30.15,30.10,10.0,3.6,0.2,12,3,20,0.00,5,Fog,119
2013-1-14,77,66,55,62,59,54,97,84,56,30.20,30.16,30.12,10.0,8.2,0.5,14,6,23,0.00,2,Fog,204
2013-1-15,64,58,53,60,54,51,100,90,72,30.21,30.16,30.08,10.0,4.3,0.5,12,6,,0.04,6,Fog-Rain,66
2013-1-16,75,64,53,64,57,51,100,85,62,30.09,30.03,29.96,10.0,5.9,0.2,13,5,24,0.01,3,Fog,179
2013-1-17,66,54,42,61,53,39,100,90,81,30.00,29.96,29.84,10.0,2.2,0.2,23,7,30,0.37,6,Fog-Rain,13
2013-1-18,48,42,37,39,31,24,87,68,41,30.53,30.34,29.99,10.0,9.7,1.5,22,15,30,0.01,3,Rain,12
2013-1-19,61,48,34,43,34,23,89,67,39,30.51,30.37,30.19,10.0,9.6,5.0,7,4,,0.00,1,,18
2013-1-20,64,52,41,43,39,34,93,67,32,30.18,30.08,29.99,10.0,9.8,7.0,16,5,22,0.00,0,,245
2013-1-21,63,49,35,44,37,31,86,63,35,30.08,29.99,29.88,10.0,10.0,10.0,14,4,23,0.00,1,,216
2013-1-22,50,41,30,31,12,3,48,31,19,30.28,30.14,29.95,10.0,10.0,10.0,18,11,24,0.00,0,,341
2013-1-23,41,34,27,20,8,-1,69,38,23,30.39,30.29,30.13,10.0,10.0,10.0,14,7,17,0.00,1,,6
2013-1-24,43,35,27,33,17,4,78,49,28,30.52,30.25,29.99,10.0,9.9,8.0,25,11,36,0.00,3,,348
2013-1-25,36,30,25,31,21,7,92,67,44,30.52,30.30,30.12,10.0,7.6,2.0,13,8,,0.18,7,Rain,19
2013-1-26,34,31,28,31,28,26,89,85,81,30.40,30.25,30.12,6.0,3.3,1.2,10,6,,0.03,6,,3
2013-1-27,43,36,30,28,26,23,93,74,47,30.58,30.52,30.43,10.0,6.1,2.5,14,8,20,0.00,3,,30
2013-1-28,59,44,30,56,39,25,93,79,64,30.51,30.39,30.26,10.0,9.8,8.0,10,4,,0.00,5,Rain,354
2013-1-29,73,62,52,59,54,48,97,80,50,30.25,30.19,30.13,10.0,7.1,4.0,17,9,,0.01,3,,233
2013-1-30,73,67,61,61,60,58,93,77,62,30.14,29.88,29.64,10.0,9.3,5.0,23,12,39,0.00,7,,192
2013-1-31,69,56,39,62,40,20,88,61,26,30.07,29.77,29.55,10.0,8.8,1.0,38,22,52,0.17,4,Rain,253